Mora, MN

10:15 AM CDT on August 18, 2017 (GMT -0500)
Mora Municipal

Weather History for KJMR - May, 2013

Change the Weather History Date:

Thursday, May 2, 2013

  Actual Average Record
Temperature  
Mean Temperature 37 °F -  
Max Temperature 42 °F 62 °F 94 °F (1959)
Min Temperature 32 °F 34 °F 21 °F (1977)
Degree Days  
Heating Degree Days 28    
Moisture  
Dew Point 24 °F    
Average Humidity 62    
Maximum Humidity 80    
Minimum Humidity 46    
Precipitation  
Precipitation 0.00 in - - ()
Sea Level Pressure  
Sea Level Pressure 30.52 in    
Wind  
Wind Speed 8 mph (North)    
Max Wind Speed 15 mph    
Max Gust Speed 23 mph    
Visibility 10 miles    
Events      
Averages and records for this station are not official NWS values.
T = Trace of Precipitation, MM = Missing Value Source: NWS Daily Summary

Daily Weather History Graph

Daily Weather History Graph

Search for Another Location

Airport or City:

Trip Planner

Search our weather history database for the weather conditions in past years. The results will help you decide how hot, cold, wet, or windy it might be!

Date:

Astronomy

May. 02, 2013 Rise Set
Actual Time 5:58 AM CDT 8:22 PM CDT
Civil Twilight 5:25 AM CDT 8:55 PM CDT
Nautical Twilight 4:43 AM CDT 9:37 PM CDT
Astronomical Twilight 3:57 AM CDT 10:24 PM CDT
Moon 2:09 AM CDT (5/2) 12:50 PM CDT (5/2)
Length of Visible Light 15h 30m
Length of Day
14h 24m
Waning Gibbous, 47% of the Moon is Illuminated
May 2
Waning Gibbous
May 9
New
May 17
First Quarter
May 24
Full
May 31
Last Quarter

Hourly Weather History & Observations

Time (CDT) Temp. Windchill Dew Point Humidity Pressure Visibility Wind Dir Wind Speed Gust Speed Precip Events Conditions
12:11 AM 35.6 °F 29.9 °F 23.0 °F 60% 30.51 in 10.0 mi North 6.9 mph - N/A   Overcast
12:31 AM 35.6 °F 29.2 °F 23.0 °F 60% 30.53 in 10.0 mi North 8.1 mph - N/A   Overcast
12:51 AM 35.6 °F 28.6 °F 23.0 °F 60% 30.52 in 10.0 mi North 9.2 mph - N/A   Overcast
1:11 AM 35.6 °F 29.2 °F 24.8 °F 65% 30.52 in 10.0 mi North 8.1 mph - N/A   Mostly Cloudy
1:31 AM 35.6 °F 31.7 °F 24.8 °F 65% 30.53 in 10.0 mi NNW 4.6 mph - N/A   Clear
1:51 AM 35.6 °F 30.7 °F 26.6 °F 70% 30.53 in 10.0 mi North 5.8 mph - N/A   Clear
2:11 AM 35.6 °F 30.7 °F 26.6 °F 70% 30.53 in 10.0 mi North 5.8 mph - N/A   Clear
2:31 AM 35.6 °F 30.7 °F 26.6 °F 70% 30.54 in 10.0 mi North 5.8 mph - N/A   Mostly Cloudy
2:51 AM 35.6 °F 29.9 °F 26.6 °F 70% 30.54 in 10.0 mi NNW 6.9 mph - N/A   Overcast
3:11 AM 35.6 °F 30.7 °F 26.6 °F 70% 30.54 in 10.0 mi North 5.8 mph - N/A   Overcast
3:31 AM 33.8 °F 26.4 °F 24.8 °F 70% 30.54 in 10.0 mi NNW 9.2 mph - N/A   Overcast
3:51 AM 33.8 °F 27.7 °F 24.8 °F 70% 30.54 in 10.0 mi North 6.9 mph - N/A   Overcast
4:11 AM 33.8 °F 29.6 °F 24.8 °F 70% 30.55 in 10.0 mi North 4.6 mph - N/A   Overcast
4:31 AM 33.8 °F 29.6 °F 24.8 °F 70% 30.54 in 10.0 mi North 4.6 mph - N/A   Overcast
4:51 AM 33.8 °F 28.6 °F 24.8 °F 70% 30.54 in 10.0 mi North 5.8 mph - N/A   Overcast
5:11 AM 33.8 °F 27.7 °F 26.6 °F 75% 30.53 in 10.0 mi North 6.9 mph - N/A   Mostly Cloudy
5:31 AM 33.8 °F 27.7 °F 26.6 °F 75% 30.54 in 10.0 mi North 6.9 mph - N/A   Scattered Clouds
5:51 AM 33.8 °F 29.6 °F 26.6 °F 75% 30.53 in 10.0 mi North 4.6 mph - N/A   Scattered Clouds
6:11 AM 33.8 °F 28.6 °F 26.6 °F 75% 30.54 in 10.0 mi North 5.8 mph - N/A   Scattered Clouds
6:31 AM 32.0 °F 24.2 °F 24.8 °F 75% 30.54 in 10.0 mi NNW 9.2 mph - N/A   Clear
6:51 AM 32.0 °F 24.8 °F 24.8 °F 75% 30.55 in 10.0 mi NNW 8.1 mph - N/A   Clear
7:11 AM 32.0 °F 23.0 °F 24.8 °F 75% 30.56 in 10.0 mi NNW 11.5 mph - N/A   Mostly Cloudy
7:31 AM 32.0 °F 23.6 °F 24.8 °F 75% 30.57 in 10.0 mi NNW 10.4 mph 16.1 mph N/A   Mostly Cloudy
7:51 AM 32.0 °F 27.5 °F 26.6 °F 80% 30.56 in 10.0 mi North 4.6 mph - N/A   Overcast
8:11 AM 33.8 °F 25.8 °F 26.6 °F 75% 30.56 in 10.0 mi NNW 10.4 mph - N/A   Overcast
8:31 AM 33.8 °F 27.7 °F 24.8 °F 70% 30.56 in 10.0 mi North 6.9 mph - N/A   Mostly Cloudy
8:51 AM 33.8 °F 25.3 °F 24.8 °F 70% 30.56 in 10.0 mi North 11.5 mph 18.4 mph N/A   Overcast
9:11 AM 33.8 °F 27.0 °F 23.0 °F 65% 30.56 in 10.0 mi North 8.1 mph - N/A   Overcast
9:31 AM 33.8 °F 28.6 °F 24.8 °F 70% 30.56 in 10.0 mi North 5.8 mph - N/A   Mostly Cloudy
9:51 AM 35.6 °F 28.0 °F 24.8 °F 65% 30.56 in 10.0 mi North 10.4 mph 20.7 mph N/A   Overcast
10:11 AM 35.6 °F 27.5 °F 24.8 °F 65% 30.56 in 10.0 mi North 11.5 mph 18.4 mph N/A   Overcast
10:31 AM 35.6 °F 28.6 °F 23.0 °F 60% 30.56 in 10.0 mi North 9.2 mph 18.4 mph N/A   Overcast
10:51 AM 35.6 °F 28.6 °F 23.0 °F 60% 30.57 in 10.0 mi North 9.2 mph - N/A   Overcast
11:11 AM 35.6 °F 28.0 °F 23.0 °F 60% 30.57 in 10.0 mi North 10.4 mph 20.7 mph N/A   Overcast
11:31 AM 35.6 °F 28.0 °F 23.0 °F 60% 30.56 in 10.0 mi NNW 10.4 mph 20.7 mph N/A   Overcast
11:51 AM 37.4 °F 29.3 °F 23.0 °F 56% 30.56 in 10.0 mi NNW 12.7 mph 21.9 mph N/A   Overcast
12:11 PM 37.4 °F 29.8 °F 23.0 °F 56% 30.55 in 10.0 mi NNW 11.5 mph 21.9 mph N/A   Mostly Cloudy
12:31 PM 37.4 °F 30.3 °F 23.0 °F 56% 30.54 in 10.0 mi North 10.4 mph 23.0 mph N/A   Mostly Cloudy
12:51 PM 37.4 °F 29.3 °F 23.0 °F 56% 30.54 in 10.0 mi North 12.7 mph 23.0 mph N/A   Mostly Cloudy
1:11 PM 37.4 °F 29.8 °F 23.0 °F 56% 30.54 in 10.0 mi North 11.5 mph 19.6 mph N/A   Scattered Clouds
1:31 PM 39.2 °F 33.0 °F 23.0 °F 52% 30.53 in 10.0 mi North 9.2 mph 21.9 mph N/A   Scattered Clouds
1:51 PM 41.0 °F 34.7 °F 23.0 °F 49% 30.52 in 10.0 mi North 10.4 mph 18.4 mph N/A   Scattered Clouds
2:11 PM 41.0 °F 34.7 °F 23.0 °F 49% 30.52 in 10.0 mi NE 10.4 mph 16.1 mph N/A   Scattered Clouds
2:31 PM 42.8 °F 36.6 °F 24.8 °F 49% 30.51 in 10.0 mi North 11.5 mph 17.3 mph N/A   Scattered Clouds
2:51 PM 42.8 °F 36.2 °F 24.8 °F 49% 30.51 in 10.0 mi North 12.7 mph 23.0 mph N/A   Scattered Clouds
3:11 PM 42.8 °F 37.0 °F 23.0 °F 46% 30.51 in 10.0 mi North 10.4 mph 16.1 mph N/A   Scattered Clouds
3:31 PM 42.8 °F 37.5 °F 23.0 °F 46% 30.50 in 10.0 mi North 9.2 mph 19.6 mph N/A   Scattered Clouds
3:51 PM 42.8 °F 35.4 °F 23.0 °F 46% 30.49 in 10.0 mi NW 15.0 mph 21.9 mph N/A   Scattered Clouds
4:11 PM 41.0 °F 33.9 °F 23.0 °F 49% 30.50 in 10.0 mi North 12.7 mph 23.0 mph N/A   Scattered Clouds
4:31 PM 41.0 °F 33.5 °F 23.0 °F 49% 30.49 in 10.0 mi NNW 13.8 mph 19.6 mph N/A   Mostly Cloudy
4:51 PM 39.2 °F 33.0 °F 23.0 °F 52% 30.49 in 10.0 mi North 9.2 mph 19.6 mph N/A   Mostly Cloudy
5:11 PM 41.0 °F 34.3 °F 23.0 °F 49% 30.49 in 10.0 mi North 11.5 mph 19.6 mph N/A   Scattered Clouds
5:31 PM 37.4 °F 29.3 °F 23.0 °F 56% 30.49 in 10.0 mi NW 12.7 mph 21.9 mph N/A   Clear
5:51 PM 37.4 °F 29.8 °F 23.0 °F 56% 30.49 in 10.0 mi North 11.5 mph 17.3 mph N/A   Clear
6:11 PM 37.4 °F 29.8 °F 21.2 °F 52% 30.48 in 10.0 mi NNW 11.5 mph 16.1 mph N/A   Clear
6:31 PM 37.4 °F 28.9 °F 23.0 °F 56% 30.48 in 10.0 mi NNW 13.8 mph 19.6 mph N/A   Clear
6:51 PM 37.4 °F 30.8 °F 23.0 °F 56% 30.47 in 10.0 mi North 9.2 mph 19.6 mph N/A   Clear
7:11 PM 37.4 °F 29.3 °F 23.0 °F 56% 30.47 in 10.0 mi North 12.7 mph 19.6 mph N/A   Clear
7:31 PM 37.4 °F 32.1 °F 23.0 °F 56% 30.49 in 10.0 mi North 6.9 mph - N/A   Clear
7:51 PM 37.4 °F 28.9 °F 23.0 °F 56% 30.48 in 10.0 mi NNW 13.8 mph 18.4 mph N/A   Clear
8:11 PM 35.6 °F 28.6 °F 23.0 °F 60% 30.48 in 10.0 mi NNW 9.2 mph - N/A   Clear
8:31 PM 35.6 °F 31.7 °F 23.0 °F 60% 30.48 in 10.0 mi North 4.6 mph - N/A   Clear
8:51 PM 35.6 °F 28.6 °F 23.0 °F 60% 30.48 in 10.0 mi North 9.2 mph - N/A   Clear
9:11 PM 35.6 °F 29.2 °F 23.0 °F 60% 30.49 in 10.0 mi NNW 8.1 mph - N/A   Clear
9:31 PM 33.8 °F 28.6 °F 23.0 °F 65% 30.48 in 10.0 mi North 5.8 mph - N/A   Clear
9:51 PM 33.8 °F 28.6 °F 21.2 °F 60% 30.48 in 10.0 mi North 5.8 mph - N/A   Clear
10:11 PM 33.8 °F 28.6 °F 23.0 °F 65% 30.48 in 10.0 mi North 5.8 mph - N/A   Clear
10:31 PM 33.8 °F 29.6 °F 23.0 °F 65% 30.48 in 10.0 mi North 4.6 mph - N/A   Clear
10:51 PM 33.8 °F 27.7 °F 23.0 °F 65% 30.47 in 10.0 mi North 6.9 mph - N/A   Clear
11:11 PM 33.8 °F 29.6 °F 23.0 °F 65% 30.47 in 10.0 mi North 4.6 mph - N/A   Clear
11:31 PM 33.8 °F 27.7 °F 23.0 °F 65% 30.46 in 10.0 mi North 6.9 mph - N/A   Clear
11:51 PM 33.8 °F 27.7 °F 23.0 °F 65% 30.45 in 10.0 mi North 6.9 mph - N/A   Clear